N1YZ Weather Reports


time (UTC)temp
C
wind
direction
speed
KPH
gust
KPH
rain 1hr
cm
rain 24hr
cm
rain mn
cm
humidity
%
barometer
mb
20260509135838 16 7 0.0 0.0 0.00 0.08 0.08 99 1032.8
20260509135335 16 2 0.0 0.0 0.00 0.08 0.08 99 1032.9
20260509134833 16 36 0.0 0.0 0.00 0.08 0.08 99 1032.8
20260509134330 16 23 0.0 0.0 0.00 0.08 0.08 99 1033.1
20260509133826 16 10 0.0 0.0 0.00 0.08 0.08 99 1032.8
20260509133323 16 357 1.6 1.6 0.00 0.08 0.08 99 1032.8
20260509132822 16 11 0.0 0.0 0.00 0.08 0.08 99 1032.7
20260509132320 16 12 0.0 0.0 0.00 0.08 0.08 99 1032.2
20260509131817 16 5 0.0 0.0 0.00 0.08 0.08 99 1032.3
20260509131314 16 4 0.0 0.0 0.00 0.08 0.08 99 1032.1
20260509130810 16 3 0.0 0.0 0.00 0.08 0.08 99 1032.2
20260509130306 16 9 0.0 0.0 0.00 0.08 0.08 99 1032.0
20260509125802 16 9 0.0 0.0 0.00 0.08 0.08 99 1032.0
20260509125258 16 9 0.0 0.0 0.00 0.08 0.08 99 1032.1
20260509124755 16 9 0.0 0.0 0.00 0.08 0.08 99 1031.9
20260509124252 16 9 0.0 0.0 0.00 0.08 0.08 99 1031.7
20260509123750 16 348 0.0 0.0 0.00 0.08 0.08 99 1031.7
20260509123247 16 348 0.0 0.0 0.00 0.08 0.08 99 1031.9
20260509122743 16 355 0.0 0.0 0.00 0.08 0.08 99 1031.9
20260509122240 16 355 0.0 0.0 0.00 0.08 0.08 99 1031.9
20260509121737 16 355 0.0 0.0 0.00 0.08 0.08 99 1031.9
20260509121234 15 355 0.0 0.0 0.00 0.08 0.08 99 1031.6
20260509120732 15 346 0.0 0.0 0.00 0.08 0.08 99 1031.8
20260509120230 15 346 0.0 0.0 0.00 0.08 0.08 99 1031.7
20260509115728 15 5 0.0 0.0 0.00 0.08 0.08 99 1031.5
20260509115224 15 6 0.0 0.0 0.00 0.08 0.08 99 1031.6
20260509114723 15 356 0.0 0.0 0.00 0.08 0.08 99 1031.6
20260509114221 15 357 0.0 0.0 0.00 0.08 0.08 99 1031.7
20260509113719 15 358 0.0 0.0 0.00 0.08 0.08 99 1031.6
20260509113216 15 3 0.0 0.0 0.00 0.08 0.08 99 1031.9
20260509112713 15 3 0.0 0.0 0.00 0.08 0.08 99 1031.7
20260509112210 15 2 0.0 0.0 0.00 0.08 0.08 99 1031.7
20260509111707 15 6 0.0 0.0 0.00 0.08 0.08 99 1031.7
20260509111204 15 5 0.0 0.0 0.00 0.08 0.08 99 1031.8
20260509110701 15 321 0.0 1.6 0.00 0.08 0.08 99 1031.5
20260509110158 15 13 0.0 0.0 0.00 0.08 0.08 99 1031.5
20260509105656 15 358 0.0 0.0 0.00 0.08 0.08 99 1031.5
20260509105153 15 355 0.0 0.0 0.00 0.08 0.08 99 1031.7
20260509104650 15 358 0.0 0.0 0.00 0.08 0.08 99 1031.7
20260509104147 15 358 0.0 0.0 0.00 0.08 0.08 99 1031.4
20260509103645 15 358 0.0 0.0 0.00 0.08 0.08 99 1031.4
20260509103142 15 358 0.0 0.0 0.00 0.08 0.08 99 1031.4
20260509102640 15 356 0.0 0.0 0.00 0.08 0.08 99 1031.2
20260509102137 15 356 0.0 0.0 0.00 0.08 0.08 99 1031.1
20260509101633 15 356 0.0 0.0 0.00 0.08 0.08 99 1031.3
20260509101130 15 356 0.0 0.0 0.00 0.08 0.08 99 1031.5
20260509100627 15 37 0.0 0.0 0.00 0.08 0.08 99 1031.2
20260509100124 15 37 0.0 0.0 0.00 0.08 0.08 99 1031.0
20260509095621 15 37 0.0 0.0 0.00 0.08 0.08 99 1030.5
20260509095118 15 48 0.0 0.0 0.00 0.08 0.08 99 1030.7
20260509094614 15 49 0.0 0.0 0.00 0.08 0.08 99 1030.5
20260509094112 15 50 0.0 0.0 0.00 0.08 0.08 99 1030.5
20260509093610 15 101 0.0 0.0 0.00 0.08 0.08 99 1030.4
20260509093107 15 57 0.0 0.0 0.00 0.08 0.08 99 1030.4
20260509092604 15 22 0.0 0.0 0.00 0.08 0.08 99 1030.1
20260509092103 15 23 0.0 0.0 0.00 0.08 0.08 99 1030.1
20260509091601 15 9 0.0 0.0 0.00 0.08 0.08 99 1029.9
20260509091056 15 11 0.0 0.0 0.00 0.08 0.08 99 1030.2
20260509090554 15 345 0.0 0.0 0.00 0.08 0.08 99 1030.4
20260509090052 15 348 0.0 0.0 0.00 0.08 0.08 99 1030.3
20260509085549 15 35 0.0 0.0 0.00 0.08 0.08 99 1030.2
20260509085044 15 93 0.0 0.0 0.00 0.08 0.08 99 1030.1
20260509084542 15 12 0.0 0.0 0.18 0.08 0.08 99 1030.2
20260509084039 15 15 1.6 3.2 0.30 0.08 0.08 99 1030.5
20260509083536 15 357 1.6 1.6 0.30 0.05 0.05 99 1030.9
20260509083033 15 352 0.0 0.0 0.18 0.03 0.03 99 1031.3
20260509082530 15 355 0.0 0.0 0.00 0.00 0.00 98 1031.7
20260509082027 15 356 0.0 0.0 0.00 0.00 0.00 98 1031.5
20260509081525 15 357 0.0 0.0 0.00 0.00 0.00 98 1031.5
20260509081021 15 356 0.0 0.0 0.00 0.00 0.00 98 1031.8
20260509080519 15 356 0.0 0.0 0.00 0.00 0.00 98 1031.8
20260509080017 15 356 0.0 0.0 0.00 0.00 0.00 98 1032.1
20260509075514 15 6 0.0 0.0 0.00 0.00 0.00 98 1032.0
20260509075012 15 33 0.0 0.0 0.00 0.00 0.00 98 1032.2
20260509074509 14 44 0.0 0.0 0.00 0.00 0.00 98 1031.9
20260509074005 14 42 0.0 0.0 0.00 0.00 0.00 98 1031.8
20260509073502 14 43 0.0 0.0 0.00 0.00 0.00 98 1031.5
20260509072958 14 43 0.0 0.0 0.00 0.00 0.00 98 1031.7
20260509072455 14 169 0.0 0.0 0.00 0.00 0.00 98 1031.6
20260509071952 14 175 0.0 0.0 0.00 0.00 0.00 98 1031.8
20260509071448 14 174 3.2 3.2 0.00 0.00 0.00 98 1031.5
20260509070946 14 181 0.0 1.6 0.00 0.00 0.00 98 1031.3
20260509070443 14 19 0.0 0.0 0.00 0.00 0.00 98 1030.8
20260509065938 14 33 0.0 0.0 0.00 0.00 0.00 98 1031.3
20260509065434 14 162 0.0 0.0 0.00 0.00 0.00 98 1031.3
20260509064931 14 166 0.0 0.0 0.00 0.00 0.00 98 1031.5
20260509064429 14 177 0.0 0.0 0.00 0.00 0.00 98 1031.5
20260509063927 14 183 0.0 0.0 0.00 0.00 0.00 98 1031.6
20260509063422 14 165 0.0 0.0 0.00 0.00 0.00 98 1031.6
20260509062919 13 179 0.0 0.0 0.00 0.00 0.00 98 1031.5
20260509062416 13 183 0.0 0.0 0.00 0.00 0.00 98 1031.3
20260509061914 13 186 0.0 0.0 0.00 0.00 0.00 98 1031.7
20260509061412 14 23 0.0 0.0 0.00 0.00 0.00 98 1031.2
20260509060908 13 30 0.0 0.0 0.00 0.00 0.00 98 1031.3
20260509060405 13 30 0.0 0.0 0.00 0.00 0.00 98 1031.4
20260509055900 13 56 0.0 0.0 0.00 0.00 0.00 98 1031.7
20260509055356 13 103 0.0 0.0 0.00 0.00 0.00 98 1031.7
20260509054853 13 82 0.0 0.0 0.00 0.00 0.00 98 1031.9
20260509054350 13 31 0.0 0.0 0.00 0.00 0.00 98 1031.7
20260509053848 13 31 0.0 0.0 0.00 0.00 0.00 97 1031.8
20260509053345 13 31 0.0 0.0 0.00 0.00 0.00 97 1031.6
20260509052843 13 31 0.0 0.0 0.00 0.00 0.00 97 1032.0
20260509052340 13 31 0.0 0.0 0.00 0.00 0.00 96 1032.2
20260509051838 13 32 0.0 0.0 0.00 0.00 0.00 96 1032.0
20260509051336 14 32 0.0 0.0 0.00 0.00 0.00 96 1032.1
20260509050832 14 33 0.0 0.0 0.00 0.00 0.00 96 1032.3
20260509050329 14 52 0.0 0.0 0.00 0.00 0.00 96 1032.2
20260509045826 14 53 0.0 0.0 0.00 0.00 0.00 96 1032.1
20260509045323 14 53 0.0 0.0 0.00 0.00 0.00 96 1032.3
20260509044820 14 49 0.0 0.0 0.00 0.00 0.00 96 1032.3
20260509044318 14 50 0.0 0.0 0.00 0.00 0.00 96 1032.2
20260509043814 14 72 0.0 0.0 0.00 0.00 0.00 95 1032.2
20260509043310 14 70 0.0 0.0 0.00 0.00 0.00 95 1032.1
20260509042806 14 100 0.0 0.0 0.00 0.00 0.00 95 1032.3
20260509042306 14 58 0.0 0.0 0.00 0.00 0.00 95 1032.1
20260509041759 14 50 0.0 0.0 0.00 0.00 0.00 95 1032.1
20260509041256 14 53 0.0 0.0 0.00 0.00 0.00 95 1032.1
20260509040755 14 46 0.0 0.0 0.00 0.00 0.00 94 1032.3
20260509040252 14 47 0.0 0.0 0.00 0.00 0.00 94 1032.1
20260509035749 14 53 0.0 0.0 0.00 0.00 0.00 94 1032.0
20260509035246 14 53 0.0 0.0 0.00 0.00 0.00 94 1032.2
20260509034742 14 55 0.0 0.0 0.00 0.00 0.00 94 1032.3
20260509034240 14 59 0.0 0.0 0.00 0.00 0.00 94 1032.4
20260509033737 14 51 0.0 0.0 0.00 0.00 0.00 94 1032.1
20260509033234 15 53 0.0 0.0 0.00 0.00 0.00 94 1032.5
20260509032731 15 42 0.0 0.0 0.00 0.00 0.00 94 1032.3
20260509032228 15 40 0.0 0.0 0.00 0.00 0.00 93 1032.5
20260509031725 15 40 0.0 0.0 0.00 0.00 0.00 93 1032.4
20260509031223 15 40 0.0 0.0 0.00 0.00 0.00 93 1032.1
20260509030721 15 40 0.0 0.0 0.00 0.00 0.00 92 1032.3
20260509030218 15 41 0.0 0.0 0.00 0.00 0.00 92 1032.0
20260509025714 15 30 0.0 0.0 0.00 0.00 0.00 92 1031.8
20260509025210 15 26 0.0 0.0 0.00 0.00 0.00 91 1031.9
20260509024705 15 26 0.0 0.0 0.00 0.00 0.00 91 1032.2
20260509024202 15 26 0.0 0.0 0.00 0.00 0.00 90 1032.1
20260509023659 15 26 0.0 0.0 0.00 0.00 0.00 90 1032.2
20260509023156 15 43 0.0 0.0 0.00 0.00 0.00 90 1032.3
20260509022646 15 37 0.0 0.0 0.00 0.00 0.00 91 1032.4
20260509022145 15 48 0.0 0.0 0.00 0.00 0.00 91 1032.5
20260509021641 15 87 0.0 0.0 0.00 0.00 0.00 92 1032.2
20260509021138 15 309 0.0 0.0 0.00 0.00 0.00 92 1032.3
20260509020637 15 352 0.0 0.0 0.00 0.00 0.00 91 1032.5
20260509020133 15 354 0.0 0.0 0.00 0.00 0.00 91 1032.5
20260509015632 15 354 0.0 0.0 0.00 0.00 0.00 91 1032.4
20260509015129 15 357 0.0 0.0 0.00 0.00 0.00 91 1032.2
20260509014625 15 357 0.0 0.0 0.00 0.00 0.00 90 1032.2
20260509014122 15 357 0.0 0.0 0.00 0.00 0.00 89 1032.1
20260509013619 15 357 0.0 0.0 0.00 0.00 0.00 90 1032.1
20260509013114 15 357 0.0 0.0 0.00 0.00 0.00 90 1032.1
20260509012612 15 357 0.0 0.0 0.00 0.00 0.00 90 1031.8
20260509012108 15 357 0.0 0.0 0.00 0.00 0.00 89 1031.9
20260509011606 15 357 0.0 0.0 0.00 0.00 0.00 89 1032.1
20260509011103 15 357 0.0 0.0 0.00 0.00 0.00 89 1032.0
20260509010601 15 357 0.0 0.0 0.00 0.00 0.00 90 1032.3
20260509010057 15 357 0.0 0.0 0.00 0.00 0.00 90 1032.2
20260509005555 15 357 0.0 0.0 0.00 0.00 0.00 90 1032.2
20260509005050 15 357 0.0 0.0 0.00 0.00 0.00 88 1032.4
20260509004547 15 357 0.0 0.0 0.00 0.00 0.00 88 1032.2
20260509004044 15 357 0.0 0.0 0.00 0.00 0.00 88 1032.3
20260509003543 15 357 0.0 0.0 0.00 0.00 0.00 88 1032.3
20260509003039 15 357 0.0 0.0 0.00 0.00 0.00 88 1032.4
20260509002537 15 357 0.0 0.0 0.00 0.00 0.00 87 1032.3
20260509002034 15 357 0.0 0.0 0.00 0.00 0.00 88 1032.3
20260509001532 15 357 0.0 0.0 0.00 0.00 0.00 88 1032.3
20260509001027 15 357 0.0 0.0 0.00 0.00 0.00 89 1032.4
20260509000526 15 357 0.0 0.0 0.00 0.00 0.00 90 1032.4
20260509000021 15 357 0.0 0.0 0.00 0.00 0.00 89 1032.3
20260508235519 15 357 0.0 0.0 0.00 0.00 0.00 88 1032.6
20260508235015 16 357 0.0 0.0 0.00 0.00 0.00 89 1032.8
20260508234507 16 357 0.0 0.0 0.00 0.00 0.00 86 1032.7
20260508234004 16 357 0.0 0.0 0.00 0.00 0.00 86 1033.2
20260508233503 16 357 0.0 0.0 0.00 0.00 0.00 86 1033.3
20260508233000 16 357 0.0 0.0 0.00 0.00 0.00 85 1033.2
20260508232457 16 357 0.0 0.0 0.00 0.00 0.00 85 1033.2
20260508231954 16 357 0.0 0.0 0.00 0.00 0.00 85 1033.3
20260508231451 16 357 0.0 0.0 0.00 0.00 0.00 86 1033.4
20260508230949 16 357 0.0 0.0 0.00 0.00 0.00 85 1033.6
20260508230445 16 357 0.0 0.0 0.00 0.00 0.00 85 1033.5
20260508225942 16 357 0.0 0.0 0.00 0.00 0.00 87 1033.3
20260508225439 16 358 0.0 0.0 0.00 0.00 0.00 87 1033.4
20260508224936 16 358 0.0 0.0 0.00 0.00 0.00 87 1033.1
20260508224434 16 358 0.0 0.0 0.00 0.00 0.00 86 1033.3
20260508223931 16 358 0.0 0.0 0.00 0.00 0.00 85 1033.5
20260508223429 16 358 0.0 0.0 0.00 0.00 0.00 85 1033.4
20260508222925 16 358 0.0 0.0 0.00 0.00 0.00 84 1033.6
20260508222423 16 358 0.0 0.0 0.00 0.00 0.00 83 1033.5
20260508221919 16 358 0.0 0.0 0.00 0.00 0.00 84 1033.6
20260508221414 16 358 0.0 0.0 0.00 0.00 0.00 85 1033.5
20260508220912 16 357 0.0 0.0 0.00 0.00 0.00 86 1033.5
20260508220408 16 358 0.0 0.0 0.00 0.00 0.00 86 1033.6
20260508215904 16 358 0.0 0.0 0.00 0.00 0.00 86 1033.4
20260508215402 17 358 0.0 0.0 0.00 0.00 0.00 85 1033.4
20260508214858 17 358 0.0 0.0 0.00 0.00 0.00 84 1033.4
20260508214356 17 358 0.0 0.0 0.00 0.00 0.00 84 1033.3
20260508213852 17 357 0.0 0.0 0.00 0.00 0.00 83 1033.3
20260508213349 17 358 0.0 0.0 0.00 0.00 0.00 83 1033.5
20260508212845 17 358 0.0 0.0 0.00 0.00 0.00 84 1033.7
20260508212341 17 358 0.0 0.0 0.00 0.00 0.00 84 1033.5
20260508211837 17 1 0.0 0.0 0.00 0.00 0.00 83 1033.7
20260508211333 17 1 0.0 0.0 0.00 0.00 0.00 81 1033.7
20260508210830 17 0 0.0 0.0 0.00 0.00 0.00 81 1033.6
20260508210327 17 5 0.0 0.0 0.00 0.00 0.00 84 1033.9
20260508205818 17 6 0.0 0.0 0.00 0.00 0.00 83 1033.9
20260508205314 17 6 0.0 0.0 0.00 0.00 0.00 82 1033.9
20260508204811 17 6 0.0 0.0 0.00 0.00 0.00 81 1033.8
20260508204307 17 6 0.0 0.0 0.00 0.00 0.00 81 1034.1
20260508203803 17 6 0.0 0.0 0.00 0.00 0.00 80 1033.8
20260508203300 17 6 0.0 0.0 0.00 0.00 0.00 81 1033.6
20260508202755 17 6 0.0 0.0 0.00 0.00 0.00 81 1033.8
20260508202253 17 6 0.0 0.0 0.00 0.00 0.00 79 1034.0
20260508201750 17 6 0.0 0.0 0.00 0.00 0.00 81 1033.9
20260508201247 17 6 0.0 0.0 0.00 0.00 0.00 81 1033.9
20260508200743 17 7 0.0 0.0 0.00 0.00 0.00 82 1033.9
20260508200240 17 6 0.0 0.0 0.00 0.00 0.00 82 1034.0
20260508195736 17 7 0.0 0.0 0.00 0.00 0.00 79 1033.9
20260508195232 17 6 0.0 0.0 0.00 0.00 0.00 78 1034.2
20260508194729 17 6 0.0 0.0 0.00 0.00 0.00 78 1034.1
20260508194226 17 6 0.0 0.0 0.00 0.00 0.00 78 1034.1
20260508193723 17 7 0.0 0.0 0.00 0.00 0.00 80 1034.2
20260508193220 17 7 0.0 0.0 0.00 0.00 0.00 79 1034.4
20260508192716 17 7 0.0 0.0 0.00 0.00 0.00 78 1034.3
20260508192213 17 6 0.0 0.0 0.00 0.00 0.00 77 1034.3
20260508191711 17 6 0.0 1.6 0.00 0.00 0.00 75 1034.3
20260508191202 17 30 0.0 0.0 0.00 0.00 0.00 75 1034.4
20260508190700 17 192 1.6 1.6 0.00 0.00 0.00 75 1034.2
20260508190155 17 19 0.0 0.0 0.00 0.00 0.00 83 1033.8
20260508185652 17 10 0.0 0.0 0.00 0.00 0.00 81 1033.8
20260508185150 17 316 0.0 0.0 0.00 0.00 0.00 74 1034.4
20260508184647 17 26 0.0 0.0 0.00 0.00 0.00 81 1034.3
20260508184144 17 8 0.0 0.0 0.00 0.00 0.00 78 1034.3
20260508183641 17 356 0.0 0.0 0.00 0.00 0.00 80 1034.7
20260508183136 17 353 0.0 0.0 0.00 0.00 0.00 77 1034.5
20260508182633 17 14 0.0 0.0 0.00 0.00 0.00 78 1034.7
20260508182129 17 13 0.0 0.0 0.00 0.00 0.00 77 1035.2
20260508181625 18 2 0.0 0.0 0.00 0.00 0.00 80 1034.8
20260508181122 17 1 0.0 0.0 0.00 0.00 0.00 76 1035.1
20260508180619 18 7 0.0 0.0 0.00 0.00 0.00 74 1035.5
20260508180116 18 2 0.0 0.0 0.00 0.00 0.00 76 1035.3
20260508175613 18 3 0.0 0.0 0.00 0.00 0.00 76 1035.4
20260508175109 18 348 0.0 0.0 0.00 0.00 0.00 74 1035.4
20260508174607 18 22 0.0 0.0 0.00 0.00 0.00 74 1035.6
20260508174104 17 26 0.0 0.0 0.00 0.00 0.00 73 1036.0
20260508173601 18 14 0.0 0.0 0.00 0.00 0.00 78 1035.6
20260508173057 18 23 0.0 0.0 0.00 0.00 0.00 73 1035.7
20260508172554 18 8 0.0 0.0 0.00 0.00 0.00 75 1035.4
20260508172050 17 187 0.0 0.0 0.00 0.00 0.00 73 1035.5
20260508171547 17 25 0.0 0.0 0.00 0.00 0.00 75 1035.7
20260508171044 18 25 0.0 0.0 0.00 0.00 0.00 74 1036.0
20260508170541 18 20 0.0 0.0 0.00 0.00 0.00 76 1035.9
20260508170038 18 17 0.0 0.0 0.00 0.00 0.00 77 1036.1
20260508165535 18 21 0.0 0.0 0.00 0.00 0.00 73 1036.1
20260508165032 18 9 0.0 0.0 0.00 0.00 0.00 72 1036.3
20260508164528 18 352 0.0 0.0 0.00 0.00 0.00 73 1036.3
20260508164025 18 341 0.0 0.0 0.00 0.00 0.00 71 1036.5
20260508163523 18 346 0.0 0.0 0.00 0.00 0.00 73 1036.5
20260508163019 18 16 0.0 0.0 0.00 0.00 0.00 71 1036.5
20260508162516 18 22 0.0 0.0 0.00 0.00 0.00 69 1036.4
20260508162013 18 347 1.6 1.6 0.00 0.00 0.00 69 1036.5
20260508161510 18 12 0.0 0.0 0.00 0.00 0.00 74 1036.3
20260508161008 18 18 0.0 0.0 0.00 0.00 0.00 73 1036.6
20260508160506 18 31 0.0 0.0 0.00 0.00 0.00 70 1036.8
20260508160003 18 344 0.0 0.0 0.00 0.00 0.00 74 1036.7
20260508155500 18 346 1.6 1.6 0.00 0.00 0.00 76 1036.7
20260508154956 18 8 0.0 0.0 0.00 0.00 0.00 77 1036.9
20260508154454 17 14 0.0 0.0 0.00 0.00 0.00 76 1037.3
20260508153950 18 347 1.6 1.6 0.00 0.00 0.00 76 1037.2
20260508153447 18 357 0.0 0.0 0.00 0.00 0.00 78 1036.9
20260508152943 17 17 0.0 0.0 0.00 0.00 0.00 75 1037.1
20260508152440 17 24 0.0 0.0 0.00 0.00 0.00 79 1036.9
20260508151936 17 22 0.0 0.0 0.00 0.00 0.00 79 1036.9
20260508151433 17 13 0.0 0.0 0.00 0.00 0.00 77 1036.8
20260508150930 17 2 0.0 0.0 0.00 0.00 0.00 80 1036.7
20260508150426 17 15 0.0 0.0 0.00 0.00 0.00 79 1037.0
20260508145922 17 11 0.0 0.0 0.00 0.00 0.00 82 1037.1
20260508145419 17 11 0.0 0.0 0.00 0.00 0.00 81 1036.9
20260508144916 17 34 0.0 0.0 0.00 0.00 0.00 81 1037.0
20260508144414 17 14 0.0 0.0 0.00 0.00 0.00 80 1037.0
20260508143911 17 29 0.0 0.0 0.00 0.00 0.00 80 1037.1
20260508143408 17 164 1.6 1.6 0.00 0.00 0.00 78 1037.0
20260508142904 17 105 0.0 0.0 0.00 0.00 0.00 80 1037.3
20260508142402 16 174 1.6 3.2 0.00 0.00 0.00 81 1037.0
20260508141857 16 14 0.0 0.0 0.00 0.00 0.00 79 1037.3
20260508141355 16 168 1.6 3.2 0.00 0.00 0.00 80 1037.1
20260508140852 16 26 0.0 0.0 0.00 0.00 0.00 84 1037.2
20260508140350 16 174 1.6 1.6 0.00 0.00 0.00 85 1037.4